contact:dominique.lefevre@mio.osupytheas.fr, maurice.libes@osupytheas.fr, didier.mallarino@osupytheas.fr
Project:EMSO http://www.emso-fr.org/EMSO-France
Depth: 2436.0 m
Title:EMSO Ligure Ouest : Data MII capteur AQUADOPP
Date,Latitude,Longitude,X_East,Y_North,Z_Up,Amplitude_X,Amplitude_Y,Amplitude_Z,Batterie,SoundSpeed,Heading,Pitch,Roll,Pressure,TIS,Speed,Direction
, degrees North, degrees East, m.s-1, m.s-1,m.s-1, 1, 1, 1, Volt, m.s-1, degree, degree, degree, dbar, degree_C, m.s-1, degree
2021-10-11T00:04:03,42.805,6.029,-0.056,0.043,-0.011,101.0,101.0,101.0,13.4,1505.2,326.3,-0.8,1.8,2470.654,13.28,0.07,307.5
2021-10-11T00:07:03,42.805,6.029,-0.015,0.024,0.009,101.0,101.0,99.0,13.3,1505.2,329.7,-0.8,1.8,2470.653,13.28,0.028,328.0
2021-10-11T00:10:03,42.805,6.029,-0.006,0.052,0.024,101.0,101.0,99.0,13.4,1505.2,331.2,-0.7,1.8,2470.643,13.28,0.052,353.4
2021-10-11T00:13:03,42.805,6.029,-0.025,0.022,-0.005,100.0,102.0,100.0,13.4,1505.2,331.5,-0.7,1.8,2470.645,13.28,0.033,311.3
2021-10-11T00:16:03,42.805,6.029,-0.009,0.009,-0.015,100.0,100.0,100.0,13.3,1505.2,327.7,-0.7,1.9,2470.648,13.28,0.012,315.0
2021-10-11T00:19:03,42.805,6.029,-0.016,0.028,0.008,101.0,101.0,100.0,13.4,1505.2,330.1,-0.7,1.8,2470.676,13.28,0.032,330.3
2021-10-11T00:22:03,42.805,6.029,0.013,0.0,0.013,102.0,100.0,99.0,13.3,1505.2,330.7,-0.8,1.8,2470.622,13.28,0.013,90.0
2021-10-11T00:25:03,42.805,6.029,0.007,0.003,0.013,101.0,102.0,100.0,13.4,1505.2,327.5,-0.8,1.8,2470.68,13.28,0.007,66.8
2021-10-11T00:28:03,42.805,6.029,-0.015,0.006,-0.01,101.0,102.0,99.0,13.4,1505.2,324.9,-0.8,1.8,2470.645,13.29,0.016,291.8
2021-10-11T00:31:03,42.805,6.029,-0.018,0.019,0.003,101.0,102.0,100.0,13.4,1505.2,331.8,-0.8,1.8,2470.654,13.29,0.026,316.5
2021-10-11T00:34:03,42.805,6.029,-0.015,0.019,-0.002,102.0,100.0,99.0,13.4,1505.2,325.4,-0.7,1.8,2470.661,13.29,0.024,321.7
2021-10-11T00:37:03,42.805,6.029,0.004,0.019,0.012,101.0,101.0,100.0,13.3,1505.2,327.9,-0.8,1.8,2470.628,13.29,0.019,11.9
2021-10-11T00:40:03,42.805,6.029,-0.023,0.019,0.031,101.0,101.0,100.0,13.4,1505.2,325.8,-0.8,1.9,2470.643,13.29,0.029,309.6
2021-10-11T00:43:03,42.805,6.029,0.0,0.031,-0.01,100.0,101.0,100.0,13.4,1505.2,329.0,-0.8,1.8,2470.622,13.29,0.03,0.0
2021-10-11T00:46:03,42.805,6.029,-0.018,0.019,-0.024,100.0,100.0,99.0,13.4,1505.2,330.5,-0.8,1.8,2470.593,13.29,0.026,316.5
2021-10-11T00:49:03,42.805,6.029,-0.042,0.021,0.012,100.0,101.0,99.0,13.4,1505.2,329.5,-0.8,1.8,2470.621,13.29,0.046,296.6
2021-10-11T00:52:03,42.805,6.029,-0.021,0.018,0.0,101.0,100.0,100.0,13.4,1505.2,327.7,-0.8,1.8,2470.637,13.29,0.027,310.6
2021-10-11T00:55:03,42.805,6.029,0.004,0.0,-0.026,101.0,101.0,100.0,13.3,1505.2,329.3,-0.8,1.8,2470.601,13.29,0.004,90.0
2021-10-11T00:58:03,42.805,6.029,-0.037,-0.005,-0.025,101.0,101.0,100.0,13.3,1505.2,330.1,-0.8,1.8,2470.65,13.29,0.037,262.3
2021-10-11T01:04:03,42.805,6.029,-0.031,0.026,-0.023,103.0,102.0,101.0,13.4,1505.2,330.9,-0.7,1.8,2470.62,13.28,0.04,310.0
2021-10-11T01:07:03,42.805,6.029,-0.039,0.015,-0.017,102.0,102.0,98.0,13.3,1505.2,331.2,-0.7,1.8,2470.632,13.28,0.041,291.0
2021-10-11T01:10:03,42.805,6.029,0.004,-0.015,-0.032,101.0,101.0,100.0,13.4,1505.2,326.7,-0.7,1.8,2470.586,13.28,0.015,165.1
2021-10-11T01:13:03,42.805,6.029,0.005,0.012,-0.01,101.0,101.0,100.0,13.4,1505.2,325.7,-0.7,1.8,2470.627,13.28,0.013,22.6
2021-10-11T01:16:03,42.805,6.029,0.018,0.01,0.001,102.0,100.0,100.0,13.4,1505.2,327.8,-0.7,1.9,2470.622,13.28,0.02,60.9
2021-10-11T01:19:03,42.805,6.029,-0.012,0.006,0.007,101.0,101.0,100.0,13.3,1505.2,328.4,-0.7,1.8,2470.627,13.29,0.013,296.6
2021-10-11T01:22:03,42.805,6.029,0.005,0.015,-0.012,101.0,103.0,100.0,13.4,1505.2,327.5,-0.7,1.8,2470.64,13.29,0.015,18.4
2021-10-11T01:25:03,42.805,6.029,0.001,0.002,-0.002,100.0,101.0,100.0,13.4,1505.2,326.8,-0.7,1.8,2470.579,13.29,0.002,26.6
2021-10-11T01:28:03,42.805,6.029,-0.016,0.012,-0.03,100.0,101.0,100.0,13.4,1505.2,327.5,-0.8,1.8,2470.613,13.29,0.02,306.9
2021-10-11T01:31:03,42.805,6.029,-0.017,0.03,-0.041,101.0,100.0,100.0,13.4,1505.2,329.9,-0.8,1.8,2470.609,13.29,0.034,330.5
2021-10-11T01:34:03,42.805,6.029,-0.037,0.018,-0.029,100.0,101.0,101.0,13.4,1505.2,330.7,-0.8,1.8,2470.605,13.29,0.041,295.9
2021-10-11T01:37:03,42.805,6.029,-0.014,0.028,0.013,99.0,102.0,100.0,13.4,1505.2,329.4,-0.8,1.8,2470.618,13.29,0.031,333.4
2021-10-11T01:40:03,42.805,6.029,-0.029,0.014,-0.042,101.0,101.0,100.0,13.3,1505.2,327.2,-0.8,1.8,2470.554,13.29,0.032,295.8
2021-10-11T01:43:03,42.805,6.029,-0.017,0.014,0.004,100.0,101.0,99.0,13.4,1505.2,328.5,-0.7,1.8,2470.576,13.29,0.022,309.5
2021-10-11T01:46:03,42.805,6.029,-0.055,0.012,-0.019,100.0,101.0,99.0,13.4,1505.2,326.9,-0.7,1.8,2470.614,13.29,0.056,282.3
2021-10-11T01:49:03,42.805,6.029,-0.014,0.024,-0.011,101.0,100.0,100.0,13.3,1505.2,326.2,-0.7,1.8,2470.586,13.29,0.027,329.7
2021-10-11T01:52:03,42.805,6.029,-0.025,0.009,0.022,103.0,100.0,99.0,13.3,1505.2,329.9,-0.7,1.8,2470.613,13.29,0.026,289.8
2021-10-11T01:55:03,42.805,6.029,-0.023,0.033,0.003,101.0,101.0,100.0,13.3,1505.2,328.3,-0.8,1.8,2470.608,13.29,0.04,325.1
2021-10-11T01:58:03,42.805,6.029,-0.013,0.018,0.006,101.0,101.0,99.0,13.4,1505.2,328.8,-0.7,1.8,2470.56,13.29,0.022,324.2
2021-10-11T02:04:03,42.805,6.029,-0.054,0.028,0.011,101.0,101.0,100.0,13.4,1505.2,327.8,-0.8,1.8,2470.628,13.28,0.06,297.4
2021-10-11T02:07:03,42.805,6.029,-0.004,0.008,-0.002,101.0,102.0,100.0,13.4,1505.2,325.8,-0.7,1.8,2470.627,13.28,0.008,333.4
2021-10-11T02:10:03,42.805,6.029,-0.022,0.012,-0.014,100.0,101.0,100.0,13.3,1505.2,330.1,-0.7,1.8,2470.619,13.28,0.025,298.6
2021-10-11T02:13:03,42.805,6.029,-0.017,0.007,0.001,100.0,102.0,100.0,13.4,1505.2,327.6,-0.7,1.8,2470.582,13.28,0.018,292.4
2021-10-11T02:16:03,42.805,6.029,-0.029,0.031,0.024,100.0,101.0,100.0,13.4,1505.2,327.2,-0.8,1.8,2470.615,13.28,0.042,316.9
2021-10-11T02:19:03,42.805,6.029,-0.004,0.017,0.017,101.0,100.0,100.0,13.3,1505.2,331.0,-0.8,1.8,2470.603,13.29,0.017,346.8
2021-10-11T02:22:03,42.805,6.029,-0.029,0.017,0.007,100.0,101.0,100.0,13.4,1505.2,326.3,-0.7,1.8,2470.594,13.29,0.033,300.4
2021-10-11T02:25:03,42.805,6.029,-0.029,0.0,0.002,100.0,102.0,101.0,13.4,1505.2,325.7,-0.7,1.8,2470.571,13.29,0.028,270.0
2021-10-11T02:28:03,42.805,6.029,-0.029,0.029,-0.023,101.0,102.0,100.0,13.4,1505.2,329.3,-0.8,1.8,2470.586,13.29,0.041,315.0
2021-10-11T02:31:03,42.805,6.029,-0.042,0.02,-0.008,102.0,100.0,100.0,13.3,1505.2,329.8,-0.7,1.8,2470.566,13.29,0.046,295.5
2021-10-11T02:34:03,42.805,6.029,-0.019,0.003,-0.005,101.0,100.0,101.0,13.3,1505.2,331.4,-0.8,1.8,2470.565,13.29,0.019,279.0
2021-10-11T02:37:03,42.805,6.029,-0.001,0.016,-0.037,101.0,102.0,101.0,13.3,1505.2,325.9,-0.8,1.8,2470.615,13.29,0.016,356.4
2021-10-11T02:40:03,42.805,6.029,-0.036,0.022,-0.018,101.0,102.0,99.0,13.3,1505.2,328.3,-0.8,1.8,2470.562,13.29,0.042,301.4
2021-10-11T02:43:03,42.805,6.029,-0.047,0.005,-0.009,102.0,101.0,100.0,13.4,1505.2,327.4,-0.8,1.8,2470.554,13.29,0.047,276.1
2021-10-11T02:46:03,42.805,6.029,-0.037,0.025,-0.019,100.0,100.0,101.0,13.3,1505.2,327.1,-0.8,1.8,2470.556,13.29,0.044,304.0
2021-10-11T02:49:03,42.805,6.029,-0.02,0.018,-0.018,101.0,102.0,99.0,13.4,1505.2,328.7,-0.8,1.8,2470.565,13.29,0.026,312.0
2021-10-11T02:52:03,42.805,6.029,-0.043,0.04,-0.018,103.0,100.0,101.0,13.4,1505.2,329.8,-0.8,1.8,2470.556,13.29,0.058,312.9
2021-10-11T02:55:03,42.805,6.029,-0.048,0.033,0.001,101.0,101.0,99.0,13.4,1505.2,327.0,-0.7,1.8,2470.57,13.29,0.058,304.5
2021-10-11T02:58:03,42.805,6.029,-0.036,0.046,0.017,101.0,102.0,99.0,13.4,1505.2,328.9,-0.8,1.8,2470.576,13.29,0.058,322.0
2021-10-11T03:04:03,42.805,6.029,-0.041,0.026,-0.018,100.0,103.0,100.0,13.4,1505.2,329.6,-0.7,1.8,2470.589,13.28,0.048,302.4
2021-10-11T03:07:03,42.805,6.029,-0.034,0.019,-0.002,102.0,102.0,100.0,13.4,1505.2,330.6,-0.8,1.8,2470.604,13.28,0.038,299.2
2021-10-11T03:10:03,42.805,6.029,-0.016,0.026,0.009,102.0,102.0,99.0,13.4,1505.2,325.5,-0.7,1.8,2470.555,13.28,0.03,328.4
2021-10-11T03:13:03,42.805,6.029,-0.03,0.021,-0.004,101.0,101.0,100.0,13.3,1505.2,326.7,-0.7,1.8,2470.564,13.28,0.036,305.0
2021-10-11T03:16:03,42.805,6.029,-0.038,0.017,-0.023,102.0,102.0,101.0,13.4,1505.2,327.7,-0.7,1.8,2470.58,13.28,0.041,294.1
2021-10-11T03:19:03,42.805,6.029,-0.044,0.051,0.026,101.0,102.0,101.0,13.4,1505.2,328.6,-0.8,1.8,2470.58,13.29,0.067,319.2
2021-10-11T03:22:03,42.805,6.029,-0.038,0.021,0.015,101.0,100.0,100.0,13.4,1505.2,327.2,-0.7,1.8,2470.557,13.29,0.043,298.9
2021-10-11T03:25:03,42.805,6.029,-0.013,0.014,-0.002,102.0,102.0,101.0,13.4,1505.2,330.1,-0.8,1.8,2470.6,13.29,0.019,317.1
2021-10-11T03:28:03,42.805,6.029,-0.034,0.023,-0.012,102.0,102.0,101.0,13.4,1505.2,330.2,-0.8,1.8,2470.53,13.29,0.041,304.1
2021-10-11T03:31:03,42.805,6.029,-0.026,0.021,-0.005,103.0,102.0,100.0,13.4,1505.2,331.8,-0.8,1.8,2470.564,13.29,0.033,308.9
2021-10-11T03:34:03,42.805,6.029,-0.021,0.033,0.015,100.0,101.0,101.0,13.3,1505.2,327.8,-0.7,1.8,2470.553,13.29,0.039,327.5
2021-10-11T03:37:03,42.805,6.029,-0.036,0.03,0.004,101.0,102.0,100.0,13.4,1505.2,327.0,-0.7,1.8,2470.537,13.29,0.046,309.8
2021-10-11T03:40:03,42.805,6.029,-0.018,0.035,-0.003,99.0,103.0,101.0,13.4,1505.2,327.8,-0.7,1.8,2470.542,13.29,0.039,332.8
2021-10-11T03:43:03,42.805,6.029,-0.036,0.029,-0.002,100.0,102.0,101.0,13.3,1505.2,329.8,-0.8,1.8,2470.588,13.29,0.046,308.9
2021-10-11T03:46:03,42.805,6.029,-0.016,0.011,0.017,101.0,100.0,100.0,13.4,1505.2,325.8,-0.7,1.8,2470.554,13.29,0.019,304.5
2021-10-11T03:49:03,42.805,6.029,0.003,0.026,0.019,101.0,101.0,99.0,13.4,1505.2,326.2,-0.8,1.8,2470.532,13.29,0.026,6.6
2021-10-11T03:52:03,42.805,6.029,-0.023,0.022,-0.01,100.0,101.0,101.0,13.4,1505.2,330.8,-0.8,1.8,2470.523,13.29,0.031,313.7
2021-10-11T03:55:03,42.805,6.029,-0.029,0.03,-0.005,100.0,101.0,101.0,13.3,1505.2,331.7,-0.8,1.8,2470.566,13.29,0.041,316.0
2021-10-11T03:58:03,42.805,6.029,-0.031,0.025,0.006,100.0,101.0,101.0,13.3,1505.2,331.7,-0.7,1.8,2470.55,13.29,0.039,308.9
2021-10-11T04:04:03,42.805,6.029,-0.041,0.023,-0.016,101.0,102.0,100.0,13.3,1505.2,329.0,-0.7,1.8,2470.578,13.28,0.047,299.3
2021-10-11T04:07:03,42.805,6.029,-0.045,0.019,-0.019,102.0,101.0,100.0,13.3,1505.2,328.8,-0.8,1.8,2470.561,13.28,0.048,292.9
2021-10-11T04:10:03,42.805,6.029,-0.038,0.023,-0.025,102.0,101.0,100.0,13.4,1505.2,331.4,-0.8,1.8,2470.57,13.28,0.044,301.2
2021-10-11T04:13:03,42.805,6.029,-0.014,0.044,0.019,100.0,102.0,100.0,13.4,1505.2,329.0,-0.7,1.8,2470.545,13.28,0.046,342.4
2021-10-11T04:16:03,42.805,6.029,-0.046,0.027,0.004,101.0,101.0,101.0,13.4,1505.2,331.4,-0.7,1.8,2470.552,13.28,0.053,300.4
2021-10-11T04:19:03,42.805,6.029,-0.037,0.028,0.004,99.0,103.0,101.0,13.3,1505.2,327.7,-0.8,1.8,2470.589,13.29,0.046,307.1
2021-10-11T04:22:03,42.805,6.029,-0.036,0.036,0.007,102.0,101.0,100.0,13.4,1505.2,326.8,-0.8,1.8,2470.526,13.29,0.05,315.0
2021-10-11T04:25:03,42.805,6.029,-0.036,0.009,-0.03,100.0,101.0,101.0,13.4,1505.2,328.2,-0.7,1.8,2470.542,13.29,0.037,284.0
2021-10-11T04:28:03,42.805,6.029,-0.02,0.04,0.024,100.0,102.0,100.0,13.4,1505.2,325.9,-0.7,1.8,2470.487,13.29,0.044,333.4
2021-10-11T04:31:03,42.805,6.029,-0.048,0.031,0.006,103.0,101.0,100.0,13.4,1505.2,331.9,-0.7,1.8,2470.523,13.29,0.057,302.9
2021-10-11T04:34:03,42.805,6.029,-0.02,0.038,-0.011,101.0,102.0,100.0,13.4,1505.2,329.8,-0.8,1.8,2470.53,13.29,0.042,332.2
2021-10-11T04:37:03,42.805,6.029,-0.038,0.034,-0.027,101.0,102.0,101.0,13.3,1505.2,331.5,-0.8,1.8,2470.55,13.29,0.05,311.8
2021-10-11T04:40:03,42.805,6.029,-0.008,0.021,0.003,101.0,101.0,100.0,13.4,1505.2,325.3,-0.8,1.8,2470.546,13.29,0.022,339.1
2021-10-11T04:43:03,42.805,6.029,-0.03,0.037,0.011,102.0,102.0,100.0,13.4,1505.2,329.5,-0.7,1.9,2470.547,13.29,0.047,321.0
2021-10-11T04:46:03,42.805,6.029,-0.005,0.014,-0.022,101.0,102.0,100.0,13.4,1505.2,330.3,-0.8,1.8,2470.536,13.29,0.014,340.4
2021-10-11T04:49:03,42.805,6.029,-0.06,0.021,0.0,103.0,101.0,100.0,13.4,1505.2,327.4,-0.7,1.8,2470.507,13.29,0.063,289.3
2021-10-11T04:52:03,42.805,6.029,-0.007,0.035,-0.007,100.0,101.0,100.0,13.3,1505.2,331.6,-0.7,1.8,2470.535,13.29,0.035,348.7
2021-10-11T04:55:03,42.805,6.029,-0.044,0.029,-0.014,101.0,102.0,100.0,13.3,1505.2,331.0,-0.8,1.8,2470.508,13.29,0.052,303.4
2021-10-11T04:58:03,42.805,6.029,-0.043,0.018,-0.004,99.0,102.0,99.0,13.4,1505.2,327.7,-0.8,1.9,2470.527,13.29,0.046,292.7
2021-10-11T05:04:03,42.805,6.029,-0.045,0.019,-0.007,100.0,102.0,100.0,13.4,1505.2,326.4,-0.7,1.8,2470.615,13.28,0.048,292.9
2021-10-11T05:07:03,42.805,6.029,-0.034,0.025,-0.033,101.0,101.0,100.0,13.4,1505.2,328.6,-0.7,1.8,2470.561,13.28,0.042,306.3
2021-10-11T05:10:03,42.805,6.029,-0.024,0.02,-0.026,100.0,101.0,101.0,13.4,1505.2,329.6,-0.8,1.8,2470.565,13.28,0.031,309.8
2021-10-11T05:13:03,42.805,6.029,-0.054,0.026,-0.01,101.0,101.0,100.0,13.4,1505.2,329.8,-0.8,1.8,2470.57,13.28,0.059,295.7
2021-10-11T05:16:03,42.805,6.029,-0.028,0.036,-0.036,101.0,101.0,100.0,13.4,1505.2,331.5,-0.7,1.8,2470.551,13.28,0.045,322.1
2021-10-11T05:19:03,42.805,6.029,-0.028,0.017,-0.034,100.0,102.0,100.0,13.4,1505.2,329.6,-0.7,1.8,2470.571,13.28,0.032,301.3
2021-10-11T05:22:03,42.805,6.029,-0.028,0.034,0.0,101.0,102.0,100.0,13.3,1505.2,329.3,-0.8,1.8,2470.53,13.28,0.044,320.5
2021-10-11T05:25:03,42.805,6.029,-0.039,0.013,-0.024,103.0,100.0,100.0,13.4,1505.2,325.8,-0.8,1.8,2470.526,13.29,0.041,288.4
2021-10-11T05:28:03,42.805,6.029,-0.045,0.023,-0.006,102.0,101.0,99.0,13.4,1505.2,325.4,-0.8,1.8,2470.508,13.29,0.05,297.1
2021-10-11T05:31:03,42.805,6.029,-0.052,0.039,-0.007,100.0,101.0,100.0,13.4,1505.2,325.3,-0.8,1.8,2470.543,13.29,0.064,306.9
2021-10-11T05:34:03,42.805,6.029,-0.042,0.012,-0.022,102.0,101.0,100.0,13.4,1505.2,329.1,-0.8,1.8,2470.537,13.29,0.043,285.9
2021-10-11T05:37:03,42.805,6.029,-0.029,0.023,0.002,101.0,102.0,100.0,13.4,1505.2,330.7,-0.7,1.8,2470.498,13.29,0.037,308.4
2021-10-11T05:40:03,42.805,6.029,-0.054,0.018,-0.023,101.0,102.0,100.0,13.4,1505.2,325.3,-0.8,1.8,2470.56,13.29,0.056,288.4
2021-10-11T05:43:03,42.805,6.029,-0.014,0.005,-0.008,101.0,101.0,100.0,13.4,1505.2,327.4,-0.7,1.8,2470.532,13.28,0.014,289.6
2021-10-11T05:46:03,42.805,6.029,-0.03,0.041,0.003,100.0,102.0,100.0,13.3,1505.2,328.8,-0.7,1.8,2470.569,13.29,0.05,323.8
2021-10-11T05:49:03,42.805,6.029,-0.034,0.022,-0.048,101.0,102.0,99.0,13.4,1505.2,328.1,-0.8,1.8,2470.549,13.28,0.04,302.9
2021-10-11T05:52:03,42.805,6.029,-0.036,0.023,-0.005,100.0,101.0,101.0,13.3,1505.2,328.0,-0.7,1.8,2470.509,13.29,0.042,302.6
2021-10-11T05:55:03,42.805,6.029,-0.011,0.027,-0.029,101.0,101.0,100.0,13.3,1505.2,331.1,-0.7,1.8,2470.533,13.28,0.029,337.8
2021-10-11T05:58:03,42.805,6.029,-0.049,0.034,-0.027,101.0,101.0,100.0,13.4,1505.2,331.0,-0.7,1.8,2470.516,13.28,0.059,304.8
2021-10-11T06:04:03,42.805,6.029,-0.007,0.022,-0.024,102.0,101.0,100.0,13.4,1505.2,331.6,-0.8,1.8,2470.591,13.28,0.023,342.4
2021-10-11T06:07:03,42.805,6.029,-0.036,0.022,-0.014,100.0,101.0,100.0,13.3,1505.2,331.7,-0.7,1.8,2470.59,13.28,0.042,301.4
2021-10-11T06:10:03,42.805,6.029,-0.015,0.026,-0.011,101.0,102.0,100.0,13.3,1505.2,329.1,-0.7,1.8,2470.597,13.28,0.03,330.0
2021-10-11T06:13:03,42.805,6.029,-0.012,0.037,0.025,101.0,101.0,100.0,13.4,1505.2,325.3,-0.8,1.9,2470.585,13.28,0.038,342.0
2021-10-11T06:16:03,42.805,6.029,-0.022,0.035,-0.004,101.0,102.0,100.0,13.4,1505.2,327.4,-0.7,1.8,2470.592,13.28,0.041,327.8
2021-10-11T06:19:03,42.805,6.029,-0.038,0.039,0.007,100.0,103.0,101.0,13.3,1505.2,327.6,-0.8,1.8,2470.617,13.28,0.054,315.7
2021-10-11T06:22:03,42.805,6.029,-0.017,0.047,0.002,101.0,102.0,99.0,13.4,1505.2,328.7,-0.8,1.8,2470.61,13.28,0.049,340.1
2021-10-11T06:25:03,42.805,6.029,-0.028,0.026,-0.032,101.0,102.0,100.0,13.3,1505.2,331.1,-0.8,1.8,2470.601,13.28,0.038,312.9
2021-10-11T06:28:03,42.805,6.029,-0.043,0.036,-0.01,101.0,102.0,101.0,13.4,1505.2,329.6,-0.8,1.8,2470.565,13.28,0.056,309.9
2021-10-11T06:31:03,42.805,6.029,-0.03,0.023,-0.019,103.0,102.0,100.0,13.4,1505.2,327.2,-0.8,1.8,2470.595,13.28,0.037,307.5
2021-10-11T06:34:03,42.805,6.029,-0.025,0.017,-0.007,102.0,102.0,100.0,13.3,1505.2,327.7,-0.7,1.9,2470.6,13.28,0.03,304.2
2021-10-11T06:37:03,42.805,6.029,-0.024,0.028,-0.001,100.0,102.0,100.0,13.4,1505.2,329.5,-0.8,1.9,2470.599,13.28,0.036,319.4
2021-10-11T06:40:03,42.805,6.029,-0.012,0.017,0.012,102.0,101.0,100.0,13.4,1505.2,326.8,-0.8,1.8,2470.56,13.28,0.02,324.8
2021-10-11T06:43:03,42.805,6.029,-0.039,0.023,0.012,103.0,101.0,101.0,13.4,1505.2,328.5,-0.8,1.8,2470.6,13.28,0.045,300.5
2021-10-11T06:46:03,42.805,6.029,-0.017,0.03,0.009,102.0,102.0,100.0,13.3,1505.2,331.5,-0.8,1.8,2470.591,13.28,0.034,330.5
2021-10-11T06:49:03,42.805,6.029,-0.005,0.042,-0.015,103.0,103.0,99.0,13.4,1505.2,330.0,-0.7,1.8,2470.601,13.28,0.042,353.2
2021-10-11T06:52:03,42.805,6.029,-0.04,0.032,-0.016,102.0,102.0,100.0,13.4,1505.2,329.9,-0.8,1.8,2470.572,13.28,0.051,308.7
2021-10-11T06:55:03,42.805,6.029,-0.055,0.021,0.001,101.0,102.0,100.0,13.3,1505.2,325.6,-0.8,1.8,2470.597,13.28,0.058,290.9
2021-10-11T06:58:03,42.805,6.029,-0.024,0.043,0.028,102.0,102.0,99.0,13.3,1505.2,325.7,-0.7,1.8,2470.62,13.28,0.049,330.8
2021-10-11T07:04:03,42.805,6.029,-0.038,0.031,-0.001,101.0,102.0,100.0,13.4,1505.2,329.7,-0.8,1.8,2470.669,13.28,0.049,309.2
2021-10-11T07:07:03,42.805,6.029,-0.051,0.033,-0.039,102.0,103.0,101.0,13.3,1505.2,326.1,-0.7,1.8,2470.659,13.28,0.06,302.9
2021-10-11T07:10:03,42.805,6.029,-0.025,0.041,0.003,101.0,100.0,99.0,13.4,1505.2,330.4,-0.8,1.8,2470.617,13.28,0.048,328.6
2021-10-11T07:13:03,42.805,6.029,-0.008,0.045,0.013,100.0,103.0,100.0,13.4,1505.2,328.6,-0.8,1.8,2470.642,13.28,0.045,349.9
2021-10-11T07:16:03,42.805,6.029,-0.013,0.023,-0.059,102.0,101.0,100.0,13.4,1505.2,327.4,-0.8,1.8,2470.626,13.28,0.026,330.5
2021-10-11T07:19:03,42.805,6.029,0.015,0.02,-0.005,101.0,102.0,100.0,13.4,1505.2,331.3,-0.7,1.8,2470.655,13.28,0.025,36.9
2021-10-11T07:22:03,42.805,6.029,-0.034,0.028,-0.015,102.0,102.0,100.0,13.4,1505.2,327.7,-0.7,1.9,2470.643,13.28,0.044,309.5
2021-10-11T07:25:03,42.805,6.029,0.001,0.019,0.011,102.0,102.0,100.0,13.4,1505.2,330.0,-0.8,1.8,2470.637,13.28,0.019,3.0
2021-10-11T07:28:03,42.805,6.029,-0.029,0.022,0.01,101.0,101.0,100.0,13.4,1505.2,325.4,-0.8,1.8,2470.659,13.28,0.036,307.2
2021-10-11T07:31:03,42.805,6.029,-0.041,0.046,-0.009,101.0,102.0,100.0,13.3,1505.2,326.4,-0.8,1.8,2470.634,13.28,0.061,318.3
2021-10-11T07:34:03,42.805,6.029,-0.004,0.023,-0.016,102.0,102.0,101.0,13.4,1505.2,331.6,-0.8,1.8,2470.666,13.28,0.023,350.1
2021-10-11T07:37:03,42.805,6.029,-0.008,0.015,-0.005,100.0,103.0,100.0,13.4,1505.2,330.7,-0.8,1.8,2470.664,13.28,0.017,331.9
2021-10-11T07:40:03,42.805,6.029,-0.015,0.037,-0.002,101.0,101.0,100.0,13.4,1505.2,330.9,-0.8,1.8,2470.639,13.28,0.039,337.9
2021-10-11T07:43:03,42.805,6.029,-0.042,0.032,0.027,101.0,102.0,100.0,13.3,1505.2,326.6,-0.7,1.8,2470.646,13.28,0.052,307.3
2021-10-11T07:46:03,42.805,6.029,-0.032,0.029,-0.011,100.0,101.0,101.0,13.4,1505.2,329.7,-0.8,1.8,2470.665,13.28,0.043,312.2
2021-10-11T07:49:03,42.805,6.029,-0.024,0.023,0.012,102.0,102.0,100.0,13.4,1505.2,325.7,-0.7,1.8,2470.651,13.28,0.033,313.8
2021-10-11T07:52:03,42.805,6.029,-0.024,0.063,0.014,101.0,101.0,100.0,13.3,1505.2,331.4,-0.8,1.8,2470.649,13.28,0.067,339.1
2021-10-11T07:55:03,42.805,6.029,-0.03,0.038,-0.015,101.0,102.0,100.0,13.4,1505.2,331.8,-0.7,1.8,2470.663,13.28,0.048,321.7
2021-10-11T07:58:03,42.805,6.029,-0.011,0.03,-0.016,100.0,102.0,100.0,13.4,1505.2,327.9,-0.8,1.8,2470.674,13.28,0.031,339.9
2021-10-11T08:04:03,42.805,6.029,-0.007,0.046,0.022,101.0,102.0,100.0,13.4,1505.2,329.7,-0.8,1.8,2470.708,13.28,0.046,351.3
2021-10-11T08:07:03,42.805,6.029,-0.022,0.025,0.015,100.0,103.0,99.0,13.4,1505.2,326.6,-0.7,1.8,2470.706,13.28,0.033,318.7
2021-10-11T08:10:03,42.805,6.029,-0.015,0.043,0.018,102.0,101.0,99.0,13.4,1505.2,329.5,-0.8,1.9,2470.731,13.28,0.045,340.8
2021-10-11T08:13:03,42.805,6.029,0.0,0.035,-0.008,99.0,102.0,100.0,13.3,1505.2,327.8,-0.7,1.8,2470.719,13.28,0.035,0.0
2021-10-11T08:16:03,42.805,6.029,-0.014,0.035,-0.001,102.0,101.0,100.0,13.3,1505.2,327.2,-0.8,1.8,2470.71,13.28,0.037,338.2
2021-10-11T08:19:03,42.805,6.029,-0.001,0.041,0.027,101.0,102.0,99.0,13.3,1505.2,328.5,-0.7,1.8,2470.705,13.28,0.041,358.6
2021-10-11T08:22:03,42.805,6.029,-0.017,0.032,0.028,102.0,101.0,99.0,13.3,1505.2,329.2,-0.7,1.8,2470.671,13.28,0.036,332.0
2021-10-11T08:25:03,42.805,6.029,-0.053,0.052,0.02,100.0,102.0,101.0,13.4,1505.2,330.1,-0.7,1.8,2470.67,13.28,0.074,314.5
2021-10-11T08:28:03,42.805,6.029,-0.022,0.027,-0.025,101.0,101.0,100.0,13.4,1505.2,325.8,-0.7,1.8,2470.726,13.28,0.034,320.8
2021-10-11T08:31:03,42.805,6.029,-0.026,0.023,0.021,101.0,101.0,100.0,13.3,1505.2,325.4,-0.8,1.8,2470.708,13.28,0.034,311.5
2021-10-11T08:34:03,42.805,6.029,-0.028,0.027,0.022,101.0,101.0,101.0,13.4,1505.2,330.0,-0.7,1.8,2470.721,13.28,0.038,314.0
2021-10-11T08:37:03,42.805,6.029,-0.021,0.034,0.005,101.0,102.0,101.0,13.4,1505.2,330.0,-0.8,1.8,2470.722,13.28,0.039,328.3
2021-10-11T08:40:03,42.805,6.029,-0.008,0.034,0.017,101.0,102.0,100.0,13.4,1505.2,329.4,-0.7,1.8,2470.676,13.28,0.034,346.8
2021-10-11T08:43:03,42.805,6.029,-0.025,0.026,0.006,101.0,102.0,99.0,13.4,1505.2,325.7,-0.7,1.8,2470.692,13.28,0.036,316.1
2021-10-11T08:46:03,42.805,6.029,-0.008,0.03,-0.005,102.0,100.0,100.0,13.4,1505.2,328.7,-0.8,1.8,2470.695,13.28,0.031,345.1
2021-10-11T08:49:03,42.805,6.029,-0.014,0.036,0.021,101.0,103.0,99.0,13.3,1505.2,329.5,-0.7,1.8,2470.677,13.28,0.038,338.8
2021-10-11T08:52:03,42.805,6.029,0.001,0.035,0.025,102.0,102.0,100.0,13.3,1505.2,329.0,-0.7,1.8,2470.717,13.28,0.035,1.6
2021-10-11T08:55:03,42.805,6.029,-0.015,0.045,0.0,101.0,103.0,100.0,13.3,1505.2,325.8,-0.8,1.8,2470.746,13.28,0.047,341.6
2021-10-11T08:58:03,42.805,6.029,-0.046,0.035,-0.023,102.0,101.0,100.0,13.4,1505.2,326.8,-0.8,1.9,2470.716,13.28,0.057,307.3
2021-10-11T09:04:03,42.805,6.029,-0.026,0.062,0.043,100.0,101.0,101.0,13.4,1505.2,328.8,-0.7,1.8,2470.741,13.28,0.067,337.3
2021-10-11T09:07:03,42.805,6.029,-0.025,0.051,0.011,102.0,101.0,100.0,13.3,1505.2,329.3,-0.7,1.8,2470.784,13.28,0.056,333.9
2021-10-11T09:10:03,42.805,6.029,0.005,0.047,0.035,101.0,102.0,100.0,13.4,1505.2,327.7,-0.8,1.8,2470.771,13.28,0.047,6.1
2021-10-11T09:13:03,42.805,6.029,0.013,0.036,-0.019,101.0,101.0,100.0,13.4,1505.2,329.9,-0.7,1.8,2470.735,13.28,0.038,19.9
2021-10-11T09:16:03,42.805,6.029,0.005,0.043,0.03,101.0,102.0,99.0,13.4,1505.2,327.5,-0.7,1.9,2470.69,13.28,0.043,6.6
2021-10-11T09:19:03,42.805,6.029,-0.038,0.03,0.003,100.0,102.0,100.0,13.4,1505.2,325.3,-0.8,1.8,2470.764,13.28,0.048,308.3
2021-10-11T09:22:03,42.805,6.029,-0.009,0.045,-0.001,101.0,101.0,100.0,13.3,1505.2,329.7,-0.7,1.8,2470.733,13.28,0.045,348.7
2021-10-11T09:25:03,42.805,6.029,-0.014,0.031,0.006,101.0,102.0,100.0,13.4,1505.2,331.2,-0.8,1.8,2470.724,13.28,0.034,335.7
2021-10-11T09:28:03,42.805,6.029,-0.011,0.048,0.019,101.0,102.0,100.0,13.3,1505.2,325.4,-0.8,1.8,2470.752,13.28,0.049,347.1
2021-10-11T09:31:03,42.805,6.029,-0.008,0.027,0.036,102.0,102.0,99.0,13.4,1505.2,326.7,-0.8,1.8,2470.785,13.28,0.028,343.5
2021-10-11T09:34:03,42.805,6.029,-0.009,0.044,0.017,102.0,102.0,99.0,13.4,1505.2,327.5,-0.7,1.8,2470.752,13.28,0.044,348.4
2021-10-11T09:37:03,42.805,6.029,-0.025,0.034,0.029,101.0,102.0,100.0,13.4,1505.2,327.3,-0.8,1.9,2470.761,13.28,0.042,323.7
2021-10-11T09:40:03,42.805,6.029,-0.014,0.016,-0.016,102.0,102.0,100.0,13.4,1505.2,329.1,-0.7,1.8,2470.718,13.28,0.021,318.8
2021-10-11T09:43:03,42.805,6.029,0.0,0.027,-0.024,102.0,101.0,101.0,13.3,1505.2,329.8,-0.8,1.8,2470.78,13.28,0.026,0.0
2021-10-11T09:46:03,42.805,6.029,-0.018,0.038,0.02,100.0,102.0,101.0,13.4,1505.2,330.0,-0.8,1.8,2470.77,13.28,0.042,334.7
2021-10-11T09:49:03,42.805,6.029,-0.022,0.026,-0.013,100.0,103.0,100.0,13.4,1505.2,328.7,-0.7,1.8,2470.792,13.28,0.034,319.8
2021-10-11T09:52:03,42.805,6.029,-0.019,0.036,0.015,101.0,103.0,99.0,13.4,1505.2,330.4,-0.7,1.8,2470.732,13.28,0.04,332.2
2021-10-11T09:55:03,42.805,6.029,-0.002,0.043,0.027,101.0,102.0,100.0,13.4,1505.2,327.5,-0.8,1.8,2470.748,13.28,0.043,357.3
2021-10-11T09:58:03,42.805,6.029,-0.019,0.059,0.015,101.0,101.0,100.0,13.3,1505.2,331.4,-0.7,1.9,2470.761,13.28,0.061,342.2